| time (UTC) | temp C | wind direction | speed KPH | gust KPH | rain 1hr cm | rain 24hr cm | rain mn cm | humidity % | barometer mb |
| 20260506004517 | 1 | 191 | 12.9 | 17.7 | 0.00 | 0.10 | 0.08 | 90 | 1011.0 |
| 20260506003517 | 1 | 191 | 12.9 | 19.3 | 0.00 | 0.10 | 0.08 | 91 | 1011.1 |
| 20260506002520 | 1 | 179 | 11.3 | 16.1 | 0.00 | 0.10 | 0.08 | 91 | 1011.1 |
| 20260506001541 | 1 | 192 | 8.0 | 11.3 | 0.00 | 0.10 | 0.08 | 91 | 1011.3 |
| 20260506000530 | 1 | 232 | 3.2 | 4.8 | 0.00 | 0.10 | 0.08 | 90 | 1011.5 |
| 20260505235530 | 1 | 208 | 0.0 | 1.6 | 0.00 | 0.10 | 0.08 | 90 | 1011.4 |
| 20260505234530 | 1 | 13 | 0.0 | 1.6 | 0.05 | 0.10 | 0.08 | 90 | 1011.3 |
| 20260505233530 | 1 | 360 | 3.2 | 3.2 | 0.05 | 0.10 | 0.08 | 90 | 1011.4 |
| 20260505232531 | 1 | 352 | 3.2 | 4.8 | 0.05 | 0.10 | 0.08 | 91 | 1011.4 |
| 20260505231551 | 0 | 17 | 3.2 | 4.8 | 0.05 | 0.10 | 0.08 | 92 | 1011.3 |
| 20260505230522 | 0 | 358 | 6.4 | 8.0 | 0.05 | 0.10 | 0.08 | 92 | 1011.4 |
| 20260505225522 | 0 | 350 | 9.7 | 14.5 | 0.05 | 0.10 | 0.08 | 91 | 1011.3 |
| 20260505224543 | 0 | 337 | 8.0 | 11.3 | 0.03 | 0.05 | 0.05 | 91 | 1011.3 |
| 20260505223532 | 0 | 324 | 4.8 | 6.4 | 0.03 | 0.05 | 0.05 | 90 | 1011.0 |
| 20260505222523 | 1 | 355 | 6.4 | 11.3 | 0.03 | 0.05 | 0.05 | 90 | 1010.7 |
| 20260505221532 | 1 | 354 | 4.8 | 8.0 | 0.03 | 0.05 | 0.03 | 90 | 1010.9 |
| 20260505220517 | 1 | 344 | 8.0 | 16.1 | 0.03 | 0.03 | 0.03 | 89 | 1011.0 |
| 20260505215517 | 2 | 324 | 6.4 | 11.3 | 0.03 | 0.03 | 0.03 | 89 | 1011.1 |
| 20260505214518 | 2 | 314 | 8.0 | 11.3 | 0.00 | 0.03 | 0.03 | 88 | 1011.1 |
| 20260505213517 | 2 | 328 | 11.3 | 16.1 | 0.03 | 0.03 | 0.03 | 87 | 1011.0 |
| 20260505212541 | 2 | 328 | 8.0 | 16.1 | 0.00 | 0.03 | 0.00 | 86 | 1011.2 |
| 20260505211518 | 3 | 352 | 14.5 | 24.1 | 0.00 | 0.03 | 0.00 | 86 | 1011.2 |
| 20260505210518 | 3 | 347 | 12.9 | 24.1 | 0.00 | 0.03 | 0.00 | 85 | 1011.2 |
| 20260505205518 | 3 | 329 | 11.3 | 19.3 | 0.00 | 0.03 | 0.00 | 83 | 1011.3 |
| 20260505204518 | 5 | 346 | 16.1 | 29.0 | 0.00 | 0.03 | 0.00 | 81 | 1011.2 |
| 20260505203517 | 6 | 344 | 12.9 | 24.1 | 0.00 | 0.00 | 0.00 | 73 | 1011.1 |
| 20260505202519 | 8 | 243 | 16.1 | 24.1 | 0.00 | 0.00 | 0.00 | 55 | 1010.9 |
| 20260505201520 | 10 | 204 | 20.9 | 32.2 | 0.00 | 0.00 | 0.00 | 50 | 1010.4 |
| 20260505200517 | 10 | 195 | 29.0 | 43.5 | 0.00 | 0.00 | 0.00 | 49 | 1009.9 |
| 20260505195518 | 10 | 185 | 32.2 | 41.8 | 0.00 | 0.00 | 0.00 | 48 | 1009.8 |
| 20260505194517 | 10 | 188 | 33.8 | 48.3 | 0.00 | 0.00 | 0.00 | 48 | 1009.8 |
| 20260505193537 | 10 | 179 | 24.1 | 37.0 | 0.00 | 0.00 | 0.00 | 49 | 1010.2 |
| 20260505192518 | 8 | 179 | 24.1 | 38.6 | 0.00 | 0.00 | 0.00 | 52 | 1010.5 |
| 20260505191519 | 8 | 187 | 22.5 | 32.2 | 0.00 | 0.00 | 0.00 | 53 | 1010.7 |
| 20260505190518 | 9 | 193 | 20.9 | 35.4 | 0.00 | 0.00 | 0.00 | 52 | 1010.8 |
| 20260505185518 | 9 | 206 | 12.9 | 20.9 | 0.00 | 0.00 | 0.00 | 50 | 1010.9 |
| 20260505184518 | 8 | 211 | 12.9 | 25.7 | 0.00 | 0.00 | 0.00 | 50 | 1011.0 |
| 20260505183518 | 8 | 194 | 19.3 | 33.8 | 0.00 | 0.00 | 0.00 | 53 | 1011.1 |
| 20260505182518 | 8 | 185 | 16.1 | 27.4 | 0.00 | 0.00 | 0.00 | 53 | 1011.2 |
| 20260505181519 | 8 | 198 | 14.5 | 22.5 | 0.00 | 0.00 | 0.00 | 52 | 1011.3 |
| 20260505180518 | 9 | 182 | 11.3 | 20.9 | 0.00 | 0.00 | 0.00 | 50 | 1011.4 |
| 20260505175519 | 8 | 170 | 14.5 | 22.5 | 0.00 | 0.00 | 0.00 | 54 | 1011.5 |
| 20260505174519 | 8 | 179 | 11.3 | 27.4 | 0.00 | 0.00 | 0.00 | 53 | 1011.5 |
| 20260505173521 | 8 | 221 | 9.7 | 14.5 | 0.00 | 0.00 | 0.00 | 55 | 1011.9 |
| 20260505172517 | 7 | 219 | 6.4 | 12.9 | 0.00 | 0.00 | 0.00 | 59 | 1012.2 |
| 20260505171519 | 7 | 208 | 8.0 | 16.1 | 0.00 | 0.00 | 0.00 | 61 | 1012.3 |
| 20260505170520 | 7 | 206 | 11.3 | 17.7 | 0.00 | 0.00 | 0.00 | 62 | 1012.0 |
| 20260505165540 | 6 | 173 | 12.9 | 20.9 | 0.00 | 0.00 | 0.00 | 64 | 1012.0 |
| 20260505164517 | 7 | 192 | 11.3 | 20.9 | 0.00 | 0.00 | 0.00 | 64 | 1012.2 |
| 20260505163517 | 6 | 205 | 11.3 | 17.7 | 0.00 | 0.00 | 0.00 | 64 | 1012.3 |
| 20260505162517 | 6 | 199 | 16.1 | 24.1 | 0.00 | 0.00 | 0.00 | 68 | 1012.4 |
| 20260505161521 | 6 | 207 | 14.5 | 20.9 | 0.00 | 0.00 | 0.00 | 69 | 1012.6 |
| 20260505160518 | 6 | 217 | 12.9 | 19.3 | 0.00 | 0.00 | 0.00 | 70 | 1012.7 |
| 20260505152519 | 6 | 224 | 11.3 | 20.9 | 0.00 | 0.00 | 0.00 | 72 | 1012.7 |
| 20260505151559 | 5 | 215 | 14.5 | 22.5 | 0.00 | 0.00 | 0.00 | 73 | 1012.7 |
| 20260505150519 | 5 | 215 | 12.9 | 20.9 | 0.00 | 0.00 | 0.00 | 74 | 1012.8 |
| 20260505140520 | 5 | 212 | 8.0 | 14.5 | 0.00 | 0.00 | 0.00 | 79 | 1013.2 |
| 20260505124522 | 2 | 220 | 11.3 | 16.1 | 0.00 | 0.00 | 0.00 | 85 | 1013.0 |
| 20260505123542 | 2 | 227 | 9.7 | 14.5 | 0.00 | 0.00 | 0.00 | 85 | 1012.8 |
| 20260505122519 | 2 | 220 | 9.7 | 16.1 | 0.00 | 0.00 | 0.00 | 86 | 1012.8 |
| 20260505121522 | 2 | 223 | 6.4 | 9.7 | 0.00 | 0.00 | 0.00 | 86 | 1012.9 |
| 20260505120522 | 2 | 253 | 6.4 | 9.7 | 0.00 | 0.00 | 0.00 | 86 | 1012.9 |
| 20260505115522 | 2 | 210 | 6.4 | 9.7 | 0.00 | 0.00 | 0.00 | 86 | 1012.7 |
| 20260505114527 | 1 | 169 | 3.2 | 6.4 | 0.00 | 0.00 | 0.00 | 86 | 1012.8 |
| 20260505113547 | 2 | 163 | 3.2 | 4.8 | 0.00 | 0.00 | 0.00 | 86 | 1012.6 |
| 20260505112547 | 2 | 163 | 3.2 | 6.4 | 0.00 | 0.00 | 0.00 | 86 | 1012.5 |
| 20260505111517 | 2 | 157 | 4.8 | 9.7 | 0.00 | 0.00 | 0.00 | 86 | 1012.7 |
| 20260505110543 | 2 | 195 | 6.4 | 8.0 | 0.00 | 0.00 | 0.00 | 85 | 1012.5 |
| 20260505101518 | 3 | 165 | 11.3 | 14.5 | 0.00 | 0.00 | 0.00 | 84 | 1012.8 |
| 20260505100558 | 3 | 171 | 11.3 | 16.1 | 0.00 | 0.00 | 0.00 | 83 | 1012.9 |
| 20260505095518 | 3 | 184 | 14.5 | 19.3 | 0.00 | 0.00 | 0.00 | 83 | 1013.0 |
| 20260505094559 | 3 | 185 | 12.9 | 17.7 | 0.00 | 0.00 | 0.00 | 83 | 1013.2 |
| 20260505093519 | 3 | 189 | 12.9 | 17.7 | 0.00 | 0.00 | 0.00 | 83 | 1013.1 |
| 20260505092519 | 3 | 191 | 14.5 | 22.5 | 0.00 | 0.00 | 0.00 | 82 | 1013.2 |
| 20260505091519 | 3 | 188 | 12.9 | 17.7 | 0.00 | 0.00 | 0.00 | 82 | 1013.1 |
| 20260505090519 | 3 | 176 | 14.5 | 20.9 | 0.00 | 0.00 | 0.00 | 82 | 1013.1 |
| 20260505085520 | 3 | 186 | 16.1 | 20.9 | 0.00 | 0.00 | 0.00 | 81 | 1013.2 |
| 20260505084537 | 3 | 188 | 11.3 | 16.1 | 0.00 | 0.00 | 0.00 | 81 | 1013.3 |
| 20260505083520 | 3 | 188 | 11.3 | 16.1 | 0.00 | 0.00 | 0.00 | 80 | 1013.4 |
| 20260505082520 | 4 | 188 | 9.7 | 12.9 | 0.00 | 0.00 | 0.00 | 79 | 1013.4 |
| 20260505081520 | 4 | 178 | 8.0 | 11.3 | 0.00 | 0.00 | 0.00 | 78 | 1013.4 |
| 20260505080521 | 4 | 180 | 8.0 | 12.9 | 0.00 | 0.00 | 0.00 | 76 | 1013.4 |
| 20260505075521 | 5 | 187 | 8.0 | 9.7 | 0.00 | 0.00 | 0.00 | 75 | 1013.6 |
| 20260505074541 | 5 | 197 | 8.0 | 9.7 | 0.00 | 0.00 | 0.00 | 72 | 1013.6 |
| 20260505073521 | 5 | 186 | 9.7 | 14.5 | 0.00 | 0.00 | 0.00 | 70 | 1013.5 |
| 20260505072521 | 5 | 161 | 6.4 | 9.7 | 0.00 | 0.00 | 0.00 | 70 | 1013.6 |
| 20260505071522 | 5 | 118 | 3.2 | 8.0 | 0.00 | 0.00 | 0.00 | 68 | 1013.6 |
| 20260505070519 | 5 | 155 | 6.4 | 8.0 | 0.00 | 0.00 | 0.00 | 73 | 1013.5 |
| 20260505065519 | 5 | 104 | 3.2 | 4.8 | 0.00 | 0.00 | 0.00 | 75 | 1013.6 |
| 20260505064519 | 5 | 162 | 4.8 | 6.4 | 0.00 | 0.00 | 0.00 | 75 | 1013.5 |
| 20260505063519 | 6 | 121 | 4.8 | 6.4 | 0.00 | 0.00 | 0.00 | 71 | 1013.4 |
| 20260505062519 | 6 | 205 | 0.0 | 3.2 | 0.00 | 0.00 | 0.00 | 72 | 1013.5 |
| 20260505061540 | 6 | 182 | 3.2 | 4.8 | 0.00 | 0.00 | 0.00 | 74 | 1013.3 |
| 20260505060540 | 6 | 75 | 3.2 | 4.8 | 0.00 | 0.00 | 0.00 | 69 | 1013.4 |
| 20260505055520 | 6 | 62 | 3.2 | 4.8 | 0.00 | 0.00 | 0.00 | 67 | 1013.3 |
| 20260505054540 | 6 | 345 | 1.6 | 4.8 | 0.00 | 0.00 | 0.00 | 68 | 1013.5 |
| 20260505053517 | 6 | 85 | 4.8 | 9.7 | 0.00 | 0.00 | 0.00 | 70 | 1013.4 |
| 20260505052543 | 6 | 65 | 6.4 | 8.0 | 0.00 | 0.00 | 0.00 | 72 | 1013.4 |
| 20260505051520 | 6 | 154 | 4.8 | 6.4 | 0.00 | 0.00 | 0.00 | 71 | 1013.4 |
| 20260505050518 | 6 | 173 | 6.4 | 8.0 | 0.00 | 0.00 | 0.00 | 72 | 1013.4 |
| 20260505041519 | 8 | 73 | 9.7 | 14.5 | 0.00 | 0.00 | 0.00 | 64 | 1013.0 |
| 20260505040522 | 8 | 101 | 4.8 | 6.4 | 0.00 | 0.00 | 0.00 | 62 | 1013.0 |
| 20260505035519 | 8 | 79 | 4.8 | 11.3 | 0.00 | 0.00 | 0.00 | 61 | 1013.0 |
| 20260505034519 | 8 | 79 | 6.4 | 11.3 | 0.00 | 0.00 | 0.00 | 60 | 1012.9 |
| 20260505033519 | 8 | 68 | 8.0 | 16.1 | 0.00 | 0.00 | 0.00 | 58 | 1012.8 |
| 20260505032519 | 8 | 51 | 11.3 | 16.1 | 0.00 | 0.00 | 0.00 | 62 | 1012.7 |
| 20260505031520 | 8 | 54 | 12.9 | 14.5 | 0.00 | 0.00 | 0.00 | 64 | 1012.6 |
| 20260505030520 | 8 | 58 | 11.3 | 14.5 | 0.00 | 0.00 | 0.00 | 58 | 1012.7 |
| 20260505025520 | 8 | 354 | 6.4 | 14.5 | 0.00 | 0.00 | 0.00 | 64 | 1012.7 |
| 20260505023523 | 8 | 0 | 1.6 | 4.8 | 0.00 | 0.00 | 0.00 | 58 | 1012.2 |
| 20260505022523 | 9 | 343 | 3.2 | 4.8 | 0.00 | 0.00 | 0.00 | 58 | 1012.0 |
| 20260505021524 | 10 | 329 | 1.6 | 3.2 | 0.00 | 0.00 | 0.00 | 52 | 1011.9 |
| 20260505020524 | 10 | 282 | 1.6 | 4.8 | 0.00 | 0.00 | 0.00 | 48 | 1011.7 |
| 20260505015524 | 11 | 333 | 1.6 | 3.2 | 0.00 | 0.00 | 0.00 | 47 | 1011.5 |
| 20260505014521 | 11 | 56 | 9.7 | 12.9 | 0.00 | 0.00 | 0.00 | 45 | 1011.4 |
| 20260505013518 | 11 | 41 | 12.9 | 24.1 | 0.00 | 0.00 | 0.00 | 45 | 1011.4 |
| 20260505012522 | 12 | 40 | 11.3 | 16.1 | 0.00 | 0.00 | 0.00 | 41 | 1011.3 |
| 20260505011522 | 12 | 35 | 9.7 | 14.5 | 0.00 | 0.00 | 0.00 | 42 | 1011.1 |
| 20260505010522 | 12 | 360 | 6.4 | 12.9 | 0.00 | 0.00 | 0.00 | 40 | 1011.1 |
| 20260505005525 | 13 | 334 | 3.2 | 4.8 | 0.00 | 0.00 | 0.00 | 35 | 1010.9 |